Date,TemperatureHighF,TemperatureAvgF,TemperatureLowF,DewpointHighF,DewpointAvgF,DewpointLowF,HumidityHigh,HumidityAvg,HumidityLow,PressureMaxIn,PressureMinIn,WindSpeedMaxMPH,WindSpeedAvgMPH,GustSpeedMaxMPH,PrecipitationSumIn
2014-1-1,66,52,44,24,17,13,33,26,17,0.00,40.00,4,2,11,0.00
2014-1-2,64,50,41,24,18,16,38,29,16,0.00,40.00,4,2,13,0.00
2014-1-3,64,48,41,25,21,17,45,34,20,0.00,40.00,5,2,10,0.00
2014-1-15,70,60,45,10,4,-2,15,11,6,0.00,40.00,10,6,30,0.00
2014-1-16,71,62,48,6,2,-3,15,9,5,0.00,40.00,5,4,22,0.00
2014-1-17,69,54,44,14,9,0,25,17,10,0.00,40.00,6,3,18,0.00
2014-1-18,68,53,42,15,11,8,28,19,11,0.00,40.00,5,2,12,0.00
2014-1-19,67,52,42,10,6,3,24,16,9,0.00,40.00,5,3,14,0.00
2014-1-20,67,51,40,12,6,2,22,16,8,0.00,40.00,5,3,18,0.00
2014-1-21,67,51,41,13,7,0,27,17,9,0.00,40.00,4,2,9,0.00
2014-1-22,62,49,41,19,10,0,32,22,10,0.00,40.00,6,3,15,0.00
2014-1-23,56,46,41,22,13,9,42,27,16,0.00,40.00,25,4,35,0.00
2014-1-24,63,50,41,23,16,10,34,26,17,0.00,40.00,4,2,13,0.00
2014-1-25,63,48,40,21,16,11,35,28,17,0.00,40.00,7,3,17,0.00
2014-1-26,59,45,38,21,18,16,47,35,22,0.00,40.00,7,3,13,0.00
2014-1-27,57,45,36,25,18,11,48,35,17,0.00,40.00,6,3,11,0.00
2014-2-2,38,29,25,28,24,19,100,82,52,0.00,40.00,4,2,18,0.01
2014-2-3,39,30,22,30,25,19,100,83,51,0.00,40.00,4,2,13,0.07
2014-2-4,44,32,22,31,24,13,99,76,32,0.00,40.00,7,2,16,0.03
2014-2-5,45,34,26,31,28,22,100,81,42,0.00,40.00,6,3,16,0.00
2014-2-6,41,34,30,35,32,29,100,94,74,0.00,40.00,2,1,7,0.18
2014-2-7,48,34,31,37,33,31,100,95,54,0.00,40.00,3,2,12,0.40
2014-2-8,39,36,32,39,36,32,100,100,98,0.00,40.00,3,2,7,1.66
2014-2-9,48,41,36,43,39,36,100,94,82,0.00,40.00,3,2,11,0.33
2014-2-10,55,44,37,43,40,36,100,86,59,0.00,40.00,5,3,14,0.08
2014-2-11,59,45,35,37,29,21,76,57,24,0.00,40.00,5,3,13,0.01
2014-2-12,68,51,41,29,22,17,56,35,17,0.00,40.00,5,3,19,0.00
2014-2-13,69,53,41,36,24,15,53,34,17,0.00,40.00,6,3,16,0.00
2014-2-14,67,53,43,40,32,20,65,46,17,0.00,40.00,5,3,13,0.00
2014-2-15,59,52,43,33,26,11,47,36,20,0.00,40.00,5,3,30,0.00
2014-2-16,61,48,35,39,33,20,98,59,29,0.00,40.00,5,3,20,0.06
2014-2-17,60,48,39,42,29,14,95,53,24,0.00,40.00,6,3,19,0.00
2014-2-18,55,45,37,34,24,10,63,44,25,0.00,40.00,4,2,10,0.00
2014-2-19,57,43,35,41,32,23,98,66,27,0.00,40.00,5,3,16,0.00
2014-2-20,57,44,35,39,34,23,96,70,29,0.00,40.00,7,3,15,0.00
2014-2-21,62,46,38,39,30,20,88,57,24,0.00,40.00,5,3,18,0.00
2014-2-22,61,46,37,39,34,29,87,67,32,0.00,40.00,7,3,15,0.00
2014-2-23,62,48,38,38,34,29,81,61,32,0.00,40.00,6,3,17,0.00
2014-2-24,65,51,40,34,24,16,75,41,17,0.00,40.00,7,3,19,0.00
2014-3-7,61,45,36,37,26,13,78,50,21,0.00,40.00,6,3,12,0.04
2014-3-8,63,54,41,30,24,1,50,33,15,0.00,40.00,7,4,18,0.00
2014-3-9,62,52,45,32,24,13,47,35,22,0.00,40.00,4,3,11,0.00
2014-3-10,61,47,41,42,30,17,89,54,32,0.00,40.00,7,3,14,0.00
2014-3-11,61,46,37,43,32,9,95,62,25,0.00,40.00,15,4,45,0.00
2014-3-12,55,45,38,13,9,5,33,23,14,0.00,40.00,14,10,40,0.00
2014-3-13,62,48,38,26,15,2,54,29,9,0.00,40.00,9,6,23,0.00
2014-3-14,62,48,37,35,22,4,64,38,16,0.00,40.00,6,4,17,0.00
2014-3-15,70,53,42,40,27,14,69,40,12,0.00,40.00,7,4,16,0.00
2014-3-16,73,56,43,33,22,-100,60,31,15,0.00,40.00,5,3,19,0.00
2014-3-17,60,50,41,38,25,14,67,38,21,0.00,40.00,8,4,22,0.00
2014-3-18,58,46,37,38,32,21,84,60,25,0.00,40.00,8,4,22,0.00
2014-3-19,65,48,36,34,28,24,82,51,22,0.00,40.00,6,3,20,0.00
2014-3-20,64,50,38,31,25,-100,54,41,23,0.00,40.00,6,3,22,0.00
2014-3-21,64,49,39,35,29,-100,66,50,27,0.00,40.00,5,3,18,0.00
2014-3-22,64,49,37,37,31,20,72,53,19,0.00,40.00,7,3,19,0.00
2014-3-23,65,51,38,35,29,17,73,48,16,0.00,40.00,7,3,17,0.00
2014-3-27,48,37,32,37,33,30,100,87,56,0.00,40.00,6,2,16,0.19
2014-3-28,58,44,32,38,33,28,94,67,40,0.00,40.00,6,3,17,0.01
2014-3-29,55,45,37,38,35,30,93,69,46,0.00,40.00,7,3,20,0.03
2014-3-30,46,37,31,37,32,30,100,85,54,0.00,40.00,6,3,16,0.41
2014-3-31,45,35,30,33,28,23,100,79,46,0.00,40.00,6,2,21,0.05
2014-4-1,43,32,22,31,27,21,100,84,46,0.00,40.00,5,2,14,0.29
2014-4-2,49,35,25,35,31,25,100,87,53,0.00,40.00,5,2,13,0.91
2014-4-3,53,39,28,31,27,23,100,65,34,0.00,40.00,6,3,23,0.01
2014-4-4,52,39,31,32,28,23,97,69,39,0.00,40.00,6,3,19,0.01
2014-4-5,54,41,30,38,31,22,98,72,37,0.00,40.00,6,3,18,0.00
2014-4-6,63,49,36,44,34,21,86,57,30,0.00,40.00,7,4,16,0.00
2014-4-7,74,62,46,33,27,15,46,28,18,0.00,40.00,5,3,15,0.00
2014-4-8,75,59,46,37,30,26,52,35,17,0.00,40.00,7,3,17,0.00
2014-4-9,73,59,47,33,28,25,48,33,18,0.00,40.00,6,3,19,0.00
2014-4-10,74,61,46,39,31,13,55,36,10,0.00,40.00,6,3,19,0.00
2014-4-11,73,60,48,38,36,32,64,44,22,0.00,40.00,5,3,16,0.00
2014-4-12,67,56,47,45,40,35,79,57,36,0.00,40.00,7,3,20,0.00
2014-4-13,67,54,43,47,42,23,91,68,33,0.00,40.00,6,3,17,0.00
2014-4-14,70,58,43,34,26,14,47,31,18,0.00,40.00,7,4,20,0.00
2014-4-15,72,56,46,37,31,29,55,41,21,0.00,40.00,6,3,15,0.00
2014-4-16,72,58,44,39,34,27,61,43,22,0.00,40.00,6,3,19,0.00
2014-4-17,72,58,47,41,38,35,68,49,28,0.00,40.00,9,3,20,0.00
2014-4-18,67,53,46,45,40,36,87,63,44,0.00,40.00,6,3,24,0.01
2014-4-19,70,55,43,46,39,32,81,57,36,0.00,40.00,8,3,24,0.01
2014-4-20,70,57,45,41,35,30,68,47,23,0.00,40.00,8,4,17,0.00
2014-4-21,68,56,44,38,34,30,65,45,27,0.00,40.00,5,3,17,0.00
2014-4-22,54,46,35,39,29,21,90,55,29,0.00,40.00,6,3,24,0.02
2014-4-23,60,46,32,33,26,14,68,50,19,0.00,40.00,8,4,19,0.02
2014-4-24,66,51,37,39,35,29,82,57,35,0.00,40.00,8,4,20,0.00
2014-4-25,48,38,31,39,35,30,100,90,57,0.00,40.00,6,3,46,1.37
2014-4-26,45,35,28,36,31,28,100,88,62,0.00,40.00,17,5,27,0.88
2014-5-13,77,66,57,27,26,24,28,23,16,0.00,40.00,5,3,17,0.00
2014-5-14,81,69,53,33,28,14,38,23,13,0.00,40.00,6,3,18,0.00
2014-5-15,83,69,54,42,33,29,48,29,16,0.00,40.00,7,3,21,0.00
2014-5-16,81,68,56,41,29,19,42,25,12,0.00,40.00,5,3,18,0.00
2014-5-17,78,64,52,32,22,19,29,21,12,0.00,40.00,7,3,21,0.00
2014-5-18,68,57,46,33,26,16,54,31,22,0.00,40.00,7,3,22,0.00
2014-5-26,86,70,55,50,42,26,73,41,13,0.00,40.00,6,3,20,0.00
2014-5-27,84,69,55,37,28,16,43,24,10,0.00,40.00,6,3,20,0.00
2014-5-28,76,63,50,33,23,16,27,22,18,0.00,40.00,6,3,23,0.00
2014-5-29,73,60,48,30,25,17,36,27,17,0.00,40.00,6,3,19,0.00
2014-5-30,77,61,47,31,22,15,40,25,12,0.00,40.00,6,3,20,0.00
2014-5-31,76,63,48,30,23,18,32,23,12,0.00,40.00,7,3,19,0.00
2014-6-1,78,62,49,33,27,21,40,27,13,0.00,40.00,8,3,19,0.00
2014-7-24,89,72,55,45,39,28,63,35,11,0.00,40.00,7,3,24,0.00
2014-7-25,91,75,59,39,33,29,43,25,12,0.00,40.00,7,3,21,0.00
2014-7-26,96,80,61,37,33,28,38,21,9,0.00,40.00,6,3,18,0.00
2014-7-27,94,79,64,41,37,35,35,24,13,0.00,40.00,6,3,21,0.00
2014-7-28,89,73,66,50,43,34,52,35,18,0.00,40.00,8,3,20,0.00
2014-7-29,86,75,62,49,42,38,58,33,18,0.00,40.00,7,3,22,0.00
2014-7-30,85,71,60,55,46,41,83,43,24,0.00,40.00,10,4,27,0.03
2014-7-31,90,74,62,47,40,33,53,32,18,0.00,40.00,5,3,15,0.01
2014-8-1,88,76,66,42,37,28,37,26,13,0.00,40.00,5,2,12,0.00
2014-8-2,90,76,65,38,33,28,30,22,13,0.00,40.00,5,3,15,0.00
2014-8-3,74,68,61,50,40,32,66,36,25,0.00,40.00,4,3,17,0.00
2014-8-4,74,64,59,52,46,44,72,53,35,0.00,40.00,7,3,17,0.00
2014-8-5,82,68,57,49,45,40,74,48,26,0.00,40.00,7,3,21,0.00
2014-8-6,83,70,56,45,41,38,55,37,24,0.00,40.00,5,3,17,0.00
2014-10-25,67,57,44,42,28,19,82,36,16,0.00,40.00,7,3,25,0.00
2014-10-26,62,49,40,40,37,32,95,68,35,0.00,40.00,7,3,20,0.00
2014-10-27,64,49,37,40,37,31,97,67,36,0.00,40.00,6,3,15,0.00
2014-10-28,70,55,44,37,31,20,70,44,15,0.00,40.00,7,4,15,0.00
2014-10-29,78,62,48,33,28,23,52,30,13,0.00,40.00,6,3,17,0.00
2014-10-30,74,61,51,29,22,20,38,24,14,0.00,40.00,6,3,17,0.00
2014-10-31,67,52,39,45,32,21,99,52,20,0.00,40.00,6,3,21,0.36
2014-11-7,73,60,49,40,32,26,55,38,17,0.00,40.00,5,2,11,0.00
2014-11-8,81,64,51,34,29,22,41,29,12,0.00,40.00,4,2,10,0.00
2014-11-9,76,61,52,39,31,25,53,35,16,0.00,40.00,7,3,17,0.00
2014-11-10,72,58,48,39,33,25,65,44,18,0.00,40.00,5,3,12,0.00
2014-11-11,66,50,40,45,36,25,98,62,23,0.00,40.00,6,3,12,0.00
2014-11-12,62,45,37,43,32,22,98,64,23,0.00,40.00,5,3,11,0.00
2014-11-13,49,43,38,48,40,31,100,91,56,0.00,40.00,4,2,8,0.53
2014-11-14,57,44,35,43,40,34,100,86,54,0.00,40.00,5,3,17,0.01
2014-11-15,55,43,33,41,34,25,98,75,34,0.00,40.00,6,3,16,0.00
2014-11-16,56,43,33,39,27,6,97,59,18,0.00,40.00,5,3,23,0.00
2014-11-17,64,47,37,36,18,6,94,38,10,0.00,40.00,4,3,11,0.00
2014-11-18,64,50,40,23,11,5,26,21,12,0.00,40.00,4,2,9,0.00
2014-11-19,51,45,40,36,21,4,80,42,19,0.00,40.00,4,2,12,0.00
2014-11-20,50,42,36,36,32,29,97,71,47,0.00,40.00,4,2,11,0.02
2014-11-21,52,40,32,39,35,29,100,83,48,0.00,40.00,5,3,12,0.03
2014-11-22,51,42,35,48,39,32,99,88,65,0.00,40.00,4,2,8,0.19
2014-11-23,59,42,33,41,32,9,100,74,17,0.00,40.00,5,3,13,0.01
2014-11-24,58,43,34,35,25,13,99,52,24,0.00,40.00,6,2,10,0.00
2014-11-25,65,50,39,27,20,12,50,33,14,0.00,40.00,4,3,10,0.00
2014-11-26,75,60,48,30,23,16,36,26,13,0.00,40.00,4,3,11,0.00
2014-11-27,74,58,48,26,20,14,36,24,12,0.00,40.00,4,2,11,0.00
2014-11-28,67,52,43,19,14,5,30,23,10,0.00,40.00,5,2,13,0.00
2014-11-29,59,50,43,16,8,3,32,19,11,0.00,40.00,6,3,21,0.00
2014-11-30,48,42,37,38,25,5,100,58,22,0.00,40.00,3,2,12,0.16
2014-12-1,57,44,34,39,36,32,100,76,39,0.00,40.00,4,2,9,0.05
2014-12-2,46,43,38,46,38,15,99,85,30,0.00,40.00,6,3,20,2.02
2014-12-3,49,44,41,46,42,39,99,95,85,0.00,40.00,6,3,26,1.26
2014-12-4,51,43,38,44,40,36,99,89,70,0.00,40.00,3,2,6,0.15
2014-12-5,51,43,37,42,37,33,90,80,56,0.00,40.00,3,2,6,0.01
2014-12-6,61,47,40,44,39,35,97,77,45,0.00,40.00,5,2,9,0.01
2014-12-7,58,46,38,37,33,26,86,62,30,0.00,40.00,4,2,9,0.00
2014-12-8,64,47,39,35,27,19,68,47,20,0.00,40.00,4,3,8,0.00
2014-12-9,64,49,39,37,26,17,62,42,26,0.00,40.00,4,2,10,0.00
2014-12-10,61,49,43,42,27,22,54,40,28,0.00,40.00,7,2,80,0.00
2014-12-11,52,48,44,33,24,19,65,39,29,0.00,40.00,10,3,58,0.00
2014-12-12,46,34,32,39,33,31,100,97,58,0.00,40.00,30,4,69,0.69
2014-12-13,45,34,29,35,32,26,100,93,67,0.00,40.00,3,2,8,0.30
2014-12-14,46,34,26,34,27,23,97,78,56,0.00,40.00,4,2,8,0.30
2014-12-15,48,36,32,33,30,26,100,79,50,0.00,40.00,35,2,35,0.31
2014-12-16,48,37,32,35,33,31,100,87,56,0.00,40.00,35,4,42,0.85
2014-12-17,41,34,32,35,33,32,100,95,74,0.00,40.00,4,2,11,0.33
2014-12-18,51,37,30,33,29,25,100,76,38,0.00,40.00,4,2,9,0.15
2014-12-19,45,38,32,30,28,25,83,67,45,0.00,40.00,5,2,13,0.07
2014-12-20,45,37,34,42,35,32,99,95,86,0.00,40.00,3,2,8,0.11
2014-12-21,56,44,36,42,38,34,94,81,53,0.00,40.00,4,2,12,0.01
2014-12-22,62,48,39,40,32,21,83,56,29,0.00,40.00,5,3,15,0.00
2014-12-23,67,53,45,36,28,17,57,40,22,0.00,40.00,5,3,18,0.00
2014-12-24,54,43,32,37,30,22,100,65,39,0.00,40.00,4,3,20,0.20
2014-12-25,41,30,23,32,16,8,100,59,28,0.00,40.00,11,4,28,0.15
2014-12-26,44,30,22,26,14,3,90,53,18,0.00,40.00,6,4,17,0.00
2014-12-27,43,33,25,21,12,0,60,42,23,0.00,40.00,5,3,11,0.00
2014-12-28,50,37,31,24,16,8,68,46,21,0.00,40.00,4,2,11,0.00
2014-12-29,51,36,26,24,12,-2,93,42,15,0.00,40.00,6,3,15,0.00
2014-12-30,34,27,21,26,8,-3,97,49,22,0.00,40.00,35,13,45,0.00
2014-12-31,39,27,19,-3,-8,-18,36,24,8,0.00,40.00,17,10,47,0.00
2015-1-1,47,37,30,10,2,-12,39,25,13,0.00,40.00,8,4,22,0.00
2015-1-2,49,36,29,12,6,-1,39,30,15,0.00,40.00,5,3,12,0.00